Terminal Aerodrome Forecast
Issued by NWS

Home | Current Version | Previous Version | Graphics & Text | Print | Product List | Glossary On
Versions: 1 2 3 4 5 6 7 8 9 10 11 12 13 14 15 16 17 18 19
000
FTUS43 KICT 270522
TAFHUT
TAF
KHUT 270522Z 2706/2806 14013KT P6SM SCT020 BKN035
     FM271000 24012KT P6SM SCT012 BKN025
     FM271500 29015KT P6SM SCT020 BKN035=

USA.gov is the U.S. government's official web portal to all federal, state and local government web resources and services.